Regional Weather Roundup
Issued by NWS

Home | Current Version | Previous Version | Graphics & Text | Print | Product List | Glossary On
Versions: 1 2 3 4 5 6 7 8 9 10 11 12 13 14 15 16 17 18 19 20 21 22 23 24 25 26 27 28 29 30 31 32 33 34 35 36 37 38 39 40 41 42 43 44 45 46 47 48 49 50
000
ASUS43 KLOT 290508
RWRIL

ILLINOIS REGIONAL WEATHER ROUNDUP
NATIONAL WEATHER SERVICE CHICAGO/ROMEOVILLE IL
1200 AM CDT SAT AUG 29 2015

NOTE: "FAIR" INDICATES FEW OR NO CLOUDS BELOW 12,000 FEET WITH NO
SIGNIFICANT WEATHER AND/OR OBSTRUCTIONS TO VISIBILITY.

* THESE STATIONS ARE NOT UNDER NWS QUALITY CONTROL. THEY ALSO MAY NOT
  REPORT WEATHER SUCH AS PRECIPITATION OR FOG.

ILZ001-002-007-009-015-016-024-290600-
NORTHWEST ILLINOIS

CITY           SKY/WX    TMP DP  RH WIND       PRES   REMARKS
MOLINE         RAIN      67  62  84 SE9       30.00F
STERLING*      CLOUDY    66  63  88 E8        30.01F
SAVANNA*       RAIN      66  63  90 S15       29.99F
$$

ILZ003-004-008-010-011-017-018-290600-
NORTH CENTRAL ILLINOIS

CITY           SKY/WX    TMP DP  RH WIND       PRES   REMARKS
ROCKFORD       RAIN      65  62  90 SE8       30.08S FOG
FREEPORT*      LGT RAIN  63  62  96 SE12      30.06F
ROCHELLE*      RAIN      65  63  93 E3        30.08S
DE KALB*       LGT RAIN  65  63  92 E3        30.09R
PERU*          CLOUDY    68  60  74 SE7       30.07R
$$

ILZ005-006-012>014-019>023-290600-
NORTHEAST ILLINOIS

CITY           SKY/WX    TMP DP  RH WIND       PRES   REMARKS
CHICAGO-OHARE  CLOUDY    70  63  78 NE5       30.08R
CHICAGO-MIDWAY CLOUDY    72  60  66 SE6       30.07S
AURORA         CLOUDY    67  62  84 CALM      30.08R
LANSING*       CLOUDY    67  60  79 SE7       30.08S
JOLIET*        CLOUDY    68  62  81 SE3       30.07R
WAUKEGAN       CLOUDY    65  63  93 NE5       30.09S FOG
DUPAGE AIRPORT CLOUDY    68  61  78 E6        30.07S
KANKAKEE*      MOCLDY    66  61  85 SE7       30.07S
WHEELING       CLOUDY    68  63  84 CALM      30.10R
MORRIS*        CLOUDY    66  62  86 SE6       30.06R
ROMEOVILLE*    CLOUDY    67  59  77 SE6       30.07S
NORTHERLY ISL    N/A     66  63  90 S2          N/A
$$

LMZ740>746-290600-
SOUTHERN LAKE MICHIGAN

STATION/POSITION SKY/WX   TEMP    WIND        PRES    VSBY  WAVE
                          AIR SEA DIR/SP/G                  HT/PER
                          (F)     (DEG/KT/KT) (MB)    (MI)  (FT/S)
SOUTHERN BUOY              68 68   80/ 10/ 10 1019.0F         0
WILMETTE HARBOR            63 56  260/  6/  6   N/A           1
HARRISON CRIB              70      90/ 13/ 14   N/A
BURNHAM HARBOR             66     160/  1/  6   N/A
BURNS HARBOR               73     130/  7/ 13 1019.3S
MICHIGAN CITY              70     100/  4/  6   N/A
MICHIGAN CITY 6N           71 71  150/  8/ 10   N/A           1
ST. JOSEPH                 70 71  160/  8/  8   N/A           1
$$

ILZ025>027-034>036-040-047-049-050-058-095>099-290600-
WEST-CENTRAL ILLINOIS

CITY           SKY/WX    TMP DP  RH WIND       PRES   REMARKS
QUINCY         HVY RAIN  69  64  84 S8        30.00R
GALESBURG*     DRIZZLE   66  61  84 E5        30.02S
MACOMB*        CLOUDY    66  63  89 SE5       30.02F
JACKSONVILLE*  CLOUDY    70  63  77 SE7       30.02S
PITTSFIELD*    CLOUDY    69  64  82 SE6       30.02S
$$

ILZ028>032-037-038-041>044-048-051>054-059>061-290600-
CENTRAL ILLINOIS

CITY           SKY/WX    TMP DP  RH WIND       PRES   REMARKS
PONTIAC        CLOUDY    65  63  92 SE6       30.07R
BLOOMINGTON    CLOUDY    65  60  83 SE8       30.07R
DECATUR        MOCLDY    67  58  72 SE5       30.05R
PEORIA         CLOUDY    72  59  63 SE6       30.04R
LACON*         CLOUDY    66  62  86 CALM      30.05R
LINCOLN*       CLOUDY    68  60  76 CALM      30.05R
SPRINGFIELD    CLOUDY    72  61  68 S9        30.03S
TAYLORVILLE    MOCLDY    66  61  82 SE5       30.05R
$$

ILZ033-039-045-046-055>057-062-063-290600-
EAST-CENTRAL ILLINOIS

CITY           SKY/WX    TMP DP  RH WIND       PRES   REMARKS
CHAMPAIGN      MOCLDY    63  59  87 SE5       30.07R
RANTOUL*       MOCLDY    66  61  85 SE5       30.07R
MATTOON        HAZE      68  58  70 S7        30.05S VSB 1/2
PARIS*         MOCLDY    64  61  90 SE3       30.08S
$$

ILZ079-100>102-290600-
SOUTHWEST ILLINOIS

CITY           SKY/WX    TMP DP  RH WIND       PRES   REMARKS
ALTON          CLOUDY    69  62  76 SE6       30.03R
BELLEVILLE     CLOUDY    69  66  91 CALM      30.02S
CAHOKIA*       CLOUDY    71  62  73 S3        30.02S
SPARTA*        CLOUDY    69  64  84 SE5       30.04S
$$

ILZ064>066-069>071-074>076-080>082-084>086-088>090-092>094-290600-
SOUTH-CENTRAL ILLINOIS

CITY           SKY/WX    TMP DP  RH WIND       PRES   REMARKS
CARBONDALE     MOCLDY    70  64  81 SE5       30.04F
CAIRO*         PTCLDY    64  64 100 CALM      30.05S
EFFINGHAM*     CLOUDY    69  57  67 SE6       30.07S
MARION         PTCLDY    72  66  83 SE3       30.05F
MT. VERNON     MOCLDY    72  61  68 CALM      30.06S
SALEM*         CLOUDY    72  62  69 SE3       30.05S
METROPOLIS*    PTCLDY    66  66 100 CALM      30.06S
$$

ILZ067-068-072-073-078-083-087-091-290600-
SOUTHEAST ILLINOIS

CITY           SKY/WX    TMP DP  RH WIND       PRES   REMARKS
LAWRENCEVILLE  PTCLDY    67  61  81 CALM      30.08R
FLORA*         PTCLDY    64  61  88 CALM      30.06S
FAIRFIELD*     PTCLDY    68  63  84 CALM      30.05S
HARRISBURG*    PTCLDY    65  63  94 CALM      30.06S
ROBINSON*      PTCLDY    60  58  94 CALM      30.09R
CARMI*         PTCLDY    62  62  97 CALM      30.06S
$$

ABBREVIATIONS USED IN REMARKS
   TC - TEMPERATURE IN CELSIUS
  WCI - WIND CHILL INDEX
   HX - HEAT INDEX
  VSB - VISIBILITY
$$



USA.gov is the U.S. government's official web portal to all federal, state and local government web resources and services.